Date,TemperatureHighF,TemperatureAvgF,TemperatureLowF,DewpointHighF,DewpointAvgF,DewpointLowF,HumidityHigh,HumidityAvg,HumidityLow,PressureMaxIn,PressureMinIn,WindSpeedMaxMPH,WindSpeedAvgMPH,GustSpeedMaxMPH,PrecipitationSumIn
2013-6-18,84,80,78,70,68,66,69,65,62,29.85,29.75,17,4,17,0.01
2013-6-19,89,81,76,70,68,66,72,65,52,29.86,29.70,14,2,14,0.32
2013-6-20,86,81,77,70,68,67,73,66,56,29.86,29.75,8,2,8,0.28
2013-6-21,91,82,75,71,68,66,75,64,48,29.88,29.74,12,3,12,0.04
2013-6-22,91,82,73,70,67,64,75,61,49,29.85,29.77,19,4,19,0.01
2013-6-24,86,84,80,69,67,64,65,58,55,29.91,29.83,11,3,11,0.00
2013-6-25,92,82,74,70,66,59,67,57,46,29.93,29.85,21,4,21,0.00
2013-6-26,90,83,76,69,65,60,62,55,48,29.90,29.81,14,3,14,0.00
2013-6-27,91,83,77,68,65,62,66,56,47,29.91,29.79,24,5,24,0.04
2013-6-28,87,80,76,68,65,61,69,60,52,29.92,29.81,17,3,17,0.30
2013-6-29,77,76,75,65,64,64,69,67,66,29.90,29.84,10,3,10,0.02
2013-6-30,86,80,74,70,67,64,72,65,56,29.92,29.82,12,3,12,0.31
2013-7-1,89,80,74,70,67,64,74,65,52,29.92,29.81,12,2,12,0.04
2013-7-2,86,79,75,70,67,64,73,67,57,29.92,29.83,9,2,9,0.06
2013-7-3,89,81,75,71,68,66,75,65,53,29.94,29.78,10,2,10,0.01
2013-7-4,87,80,75,69,66,65,71,63,54,29.96,29.84,11,2,11,0.00
2013-7-5,96,83,75,71,66,64,71,59,44,29.91,29.79,22,3,22,0.00
2013-7-6,91,81,75,69,66,63,67,59,47,29.86,29.77,21,3,21,0.00
2013-7-7,91,82,74,68,65,62,69,58,47,29.87,29.77,28,3,28,0.00
2013-7-8,96,83,74,70,65,61,66,56,43,29.90,29.81,21,3,21,0.00
2013-7-9,90,83,75,69,66,63,67,57,49,29.93,29.83,19,2,19,0.00
2013-7-10,93,84,77,70,66,64,65,56,46,29.90,29.80,19,4,19,0.00
2013-7-11,81,77,75,66,64,63,67,64,57,29.91,29.82,13,4,13,0.18
2013-7-12,85,78,73,69,66,63,71,66,58,29.92,29.84,10,2,10,0.06
2013-9-4,87,81,76,69,67,65,69,62,55,29.90,29.79,11,2,11,0.37
2013-9-5,90,81,74,70,67,64,72,63,51,29.92,29.75,14,3,14,0.00
2013-9-6,87,79,75,69,66,64,69,64,55,29.91,29.74,11,2,11,0.26
2013-9-7,84,79,74,70,67,64,71,66,60,29.89,29.75,6,1,6,0.26
2013-9-8,78,75,74,68,65,64,71,70,69,29.88,29.75,0,0,0,0.00
2013-9-9,86,79,74,70,66,64,71,65,57,29.91,29.81,13,2,13,0.00
2013-9-10,85,79,75,71,67,64,71,66,60,29.91,29.79,11,2,11,0.51
2013-9-11,84,78,75,69,66,64,70,65,58,29.92,29.81,10,2,10,1.15
2013-9-12,85,79,74,69,66,63,71,65,57,29.89,29.76,15,2,15,0.17
2013-9-13,86,81,76,70,67,65,71,64,56,29.82,29.70,10,2,10,0.01
2013-9-14,86,81,77,70,68,66,70,64,58,29.85,29.73,8,2,8,0.00
2013-9-15,86,80,76,71,68,66,70,65,58,29.87,29.75,11,3,11,0.00
2013-9-16,86,80,76,71,67,65,71,65,59,29.86,29.74,8,2,8,0.00
2013-9-17,85,79,76,70,67,65,71,67,61,29.86,29.67,6,2,6,0.00
2013-9-18,85,80,74,70,67,65,73,66,58,29.89,29.76,11,2,11,0.00
2013-9-19,84,78,75,70,66,65,71,68,63,29.93,29.80,7,1,7,0.00
2013-9-20,86,79,75,70,67,65,72,67,59,29.90,29.82,8,1,8,0.00
2013-9-21,87,81,76,70,67,65,69,63,56,29.86,29.73,11,2,11,0.00
2013-9-22,80,77,76,68,66,65,70,69,66,29.85,29.75,4,0,4,0.00
2013-9-23,86,82,79,69,67,66,64,61,58,29.89,29.80,11,4,11,0.00
2013-9-24,88,83,76,70,68,65,69,61,54,29.88,29.72,18,3,18,0.00
2013-9-26,80,76,73,65,64,61,66,64,60,29.85,29.81,9,1,9,0.18
2013-9-27,86,77,72,69,64,60,70,64,55,29.91,29.77,11,2,11,0.45
2013-9-28,87,80,74,70,66,63,70,63,55,29.93,29.81,10,3,10,0.00
2013-9-30,82,77,74,67,64,62,69,65,61,29.90,29.80,22,1,22,0.91
2013-10-1,86,79,73,70,66,63,71,65,55,29.89,29.76,14,2,14,1.11
2013-10-2,84,78,73,69,65,62,71,65,57,29.88,29.73,13,2,13,0.57
2013-10-3,88,78,74,71,66,21,70,66,55,29.91,29.76,13,2,13,2.24
2013-10-4,84,78,74,71,66,64,72,69,63,29.91,29.80,7,1,7,0.37
2013-10-5,79,76,75,69,66,66,73,72,71,29.88,29.82,0,0,0,0.00
2013-10-6,86,80,76,71,67,65,71,65,58,29.91,29.78,10,2,10,0.04
2013-10-7,87,80,74,71,66,64,71,64,55,29.91,29.78,25,2,25,0.08
2013-10-8,87,80,75,70,66,64,69,64,55,29.88,29.76,18,2,18,0.56
2013-10-9,91,82,75,71,67,64,71,62,52,29.89,29.75,17,3,17,0.00
2013-10-10,89,81,75,70,66,63,68,61,52,29.88,29.75,12,2,12,0.00
2013-10-11,88,81,75,69,67,62,68,61,53,29.87,29.74,25,4,25,0.05
2013-10-12,87,80,73,70,66,63,71,62,54,29.88,29.76,14,2,14,0.02
2013-10-13,90,81,74,70,65,61,68,59,50,29.87,29.74,18,3,18,0.02
2013-10-14,86,80,72,68,64,59,65,58,51,29.87,29.75,18,3,18,0.02
2013-10-15,88,80,76,69,66,64,68,62,52,29.88,29.77,19,3,19,0.69
2013-10-16,85,78,73,69,66,63,70,66,59,29.93,29.81,14,2,14,0.66
2013-10-17,83,78,72,69,65,62,72,66,60,29.95,29.78,8,1,8,0.06
2013-10-18,83,78,75,69,66,64,71,67,61,29.92,29.78,9,2,9,0.32
2013-10-19,85,78,74,70,66,64,72,67,58,29.91,29.78,14,2,14,0.21
2013-10-20,86,79,73,70,66,63,71,64,56,29.90,29.77,12,2,12,0.38
2013-10-21,88,79,74,70,66,63,70,65,53,29.90,29.78,12,2,12,0.61
2013-10-22,86,79,73,69,66,63,71,64,56,29.88,29.76,9,2,9,0.01
2013-10-23,86,79,75,69,66,64,69,64,57,29.86,29.73,11,1,11,0.05
2013-10-24,86,79,75,71,66,64,71,66,57,29.88,29.75,8,1,8,0.06
2013-10-25,87,79,74,71,66,63,71,66,56,29.89,29.76,11,2,11,0.90
2013-10-26,85,78,73,70,66,63,71,67,59,29.90,29.77,11,1,11,0.00
2013-10-27,85,78,74,69,66,63,72,66,57,29.89,29.78,11,2,11,0.00
2013-10-28,85,79,74,70,66,63,72,66,58,29.91,29.78,10,2,10,0.00
2013-10-29,87,80,74,71,67,64,72,64,56,29.89,29.77,10,1,10,0.01
2013-10-30,92,81,74,70,66,64,70,61,48,29.89,29.76,14,2,14,0.00
2013-10-31,87,81,76,70,67,64,70,62,54,29.89,29.75,14,2,14,0.01
2013-11-1,89,81,73,70,66,60,67,61,52,29.91,29.76,35,5,35,0.28
2013-11-2,86,78,72,69,65,61,70,64,57,29.94,29.81,21,3,21,0.08
2013-11-3,85,76,71,70,64,61,72,66,57,29.95,29.83,14,2,14,0.02
2013-11-4,84,78,72,69,66,62,72,65,58,29.92,29.80,16,2,16,0.05
2013-11-5,87,80,75,70,67,64,72,64,54,29.88,29.75,8,2,8,0.31
2013-11-6,86,80,74,70,67,64,72,65,58,29.90,29.77,10,2,10,0.14
2013-11-7,86,80,74,71,68,64,73,67,59,29.90,29.77,16,2,16,0.30
2013-11-8,86,79,73,72,67,64,75,67,58,29.88,29.73,11,2,11,0.06
2013-11-9,88,79,75,72,68,66,74,68,57,29.88,29.77,13,2,13,0.76
2013-11-10,84,77,73,72,68,65,76,72,64,29.87,29.75,9,1,11,0.04
2013-11-11,88,81,73,69,66,62,71,61,51,29.86,29.74,21,4,21,0.00
2013-11-12,90,82,74,72,67,65,73,61,51,29.83,29.70,26,4,26,0.00
2013-11-13,92,83,74,71,66,62,67,58,49,29.83,29.70,19,4,19,0.00
2013-11-14,88,78,75,70,65,62,70,63,56,29.86,29.75,14,2,14,0.09
2013-11-15,85,79,75,71,68,65,74,69,60,29.85,29.73,18,2,18,0.05
2013-11-16,91,82,73,72,67,64,76,63,51,29.85,29.72,24,3,24,0.00
2013-11-17,93,82,76,71,68,64,69,62,49,29.86,29.74,21,3,21,0.00
2013-11-18,88,80,75,72,68,64,73,66,56,29.85,29.73,20,2,20,0.00
2013-11-19,88,80,74,70,66,63,70,63,55,29.84,29.71,13,2,13,0.00
2013-11-20,88,81,74,71,67,64,72,63,55,29.89,29.79,15,3,15,0.00
2013-11-21,86,78,73,71,66,63,73,68,58,29.94,29.82,11,1,11,0.26
2013-11-22,86,79,73,71,67,64,75,68,60,29.90,29.75,11,2,11,0.38
2013-11-23,89,79,72,71,66,62,75,65,53,29.87,29.73,15,2,15,0.11
2013-11-24,90,80,72,70,66,62,73,62,49,29.89,29.76,17,3,17,0.00
2013-11-25,87,80,73,70,66,61,69,62,56,29.89,29.76,12,3,12,0.18
2013-11-26,88,80,73,72,67,63,73,66,58,29.88,29.76,9,3,9,0.00
2013-11-27,88,80,73,71,67,64,74,64,56,29.88,29.74,14,3,19,0.26
2013-11-28,89,81,76,68,65,62,65,57,49,29.91,29.78,42,7,42,0.00
2013-11-29,89,80,74,68,64,61,66,59,49,29.92,29.81,21,5,21,0.01
2013-11-30,90,81,74,68,64,62,66,58,48,29.90,29.77,35,6,35,0.00
2013-12-1,90,82,72,68,64,58,65,55,46,29.89,29.78,44,10,44,0.00
2013-12-2,88,78,70,69,64,58,68,61,53,29.90,29.76,20,2,20,0.00
2013-12-3,83,78,73,68,65,62,70,66,60,29.95,29.83,8,1,8,0.00
2013-12-4,86,79,73,70,66,61,73,65,56,29.93,29.78,11,2,11,0.00
2013-12-5,88,80,72,69,65,-19,66,59,53,29.92,29.77,19,3,19,0.00
2013-12-6,94,83,74,70,66,61,65,57,45,29.88,29.76,29,4,29,0.00
2013-12-7,93,82,72,71,65,60,67,58,45,29.90,29.75,30,4,30,0.00
2013-12-8,91,83,74,68,64,61,66,54,44,29.90,29.78,34,9,34,0.00
2013-12-9,89,80,73,68,64,60,66,57,47,29.91,29.79,18,3,18,0.00
2013-12-10,88,78,69,69,64,58,69,62,53,29.92,29.81,13,2,13,0.00
2013-12-11,91,82,74,69,65,61,66,57,47,29.91,29.78,15,4,15,0.00
2013-12-12,92,84,74,70,66,62,66,55,46,29.90,29.75,30,8,30,0.00
2013-12-13,93,84,79,69,64,61,57,51,44,29.83,29.70,35,8,35,0.00
2013-12-14,89,82,74,68,64,60,63,55,48,29.83,29.73,17,4,17,0.00
2013-12-15,90,81,73,70,65,60,67,58,49,29.86,29.73,24,3,24,0.00
2013-12-16,92,81,73,70,64,60,65,56,46,29.88,29.74,24,4,24,0.00
2013-12-17,92,82,72,69,64,59,65,54,44,29.89,29.75,30,6,30,0.00
2013-12-18,91,83,77,67,63,60,57,52,44,29.90,29.78,27,8,27,0.00
2013-12-19,91,83,76,66,63,60,60,51,41,29.88,29.73,45,9,45,0.00
2013-12-20,93,83,72,68,63,58,61,51,40,29.85,29.72,39,8,39,0.00
2013-12-21,92,83,74,68,63,58,58,52,44,29.85,29.74,34,6,34,0.00
2013-12-22,94,82,71,69,64,58,64,55,42,29.89,29.75,21,4,21,0.00
2013-12-23,94,85,76,68,63,61,62,49,39,29.89,29.76,31,8,31,0.00
2013-12-24,91,84,78,66,63,60,57,49,41,29.93,29.79,49,10,49,0.00
2013-12-25,93,84,75,65,62,59,59,49,37,29.90,29.76,25,8,25,0.00
2013-12-26,92,82,72,68,62,57,58,50,41,29.91,29.78,22,5,22,0.00
2013-12-27,94,83,72,67,61,57,58,48,38,29.92,29.77,22,8,22,0.00
2013-12-28,95,84,75,70,63,57,56,50,42,29.87,29.72,19,5,19,0.00
2013-12-29,89,83,74,69,65,60,62,55,50,29.86,29.73,17,5,17,0.00
2013-12-30,95,86,79,68,64,61,56,48,39,29.86,29.73,21,8,21,0.00
2013-12-31,94,85,78,68,64,61,55,48,41,29.89,29.76,30,9,30,0.00
2014-1-1,94,85,77,69,64,61,59,50,42,29.85,29.71,29,9,29,0.00
2014-1-2,91,84,77,67,63,60,57,51,44,29.84,29.70,14,5,14,0.00